TimeCST,TemperatureF,Dew PointF,Humidity,Sea Level PressureIn,VisibilityMPH,Wind Direction,Wind SpeedMPH,Gust SpeedMPH,PrecipitationIn,Events,Conditions,WindDirDegrees,DateUTC
12:00 AM,51,39,54,29.72,,SSE,10.4,,,,,160,2012-10-15 06:00:00
12:00 AM,50.7,39.2,65,29.72,-9999.0,SSE,10.4,-,N/A,,Unknown,160,2012-10-15 06:00:00
1:00 AM,52.5,39.7,62,29.68,-9999.0,SSE,12.7,-,N/A,,Unknown,160,2012-10-15 07:00:00
2:00 AM,51.4,40.8,67,29.65,-9999.0,SSE,11.5,-,N/A,,Unknown,160,2012-10-15 08:00:00
3:00 AM,52.5,41.0,65,29.62,-9999.0,SSE,6.9,-,N/A,,Unknown,160,2012-10-15 09:00:00
4:00 AM,55.0,41.2,60,29.59,-9999.0,South,9.2,-,N/A,,Unknown,180,2012-10-15 10:00:00
5:00 AM,57.7,40.6,53,29.59,-9999.0,SW,9.2,-,N/A,,Unknown,220,2012-10-15 11:00:00
6:00 AM,55,40,46,29.60,,SW,6.9,,,,,230,2012-10-15 12:00:00
6:00 AM,55.0,40.3,58,29.60,-9999.0,SW,6.9,-,N/A,,Unknown,230,2012-10-15 12:00:00
8:00 AM,52.0,39.9,63,29.59,-9999.0,WSW,6.9,-,N/A,,Unknown,250,2012-10-15 14:00:00
9:00 AM,55.8,41.2,58,29.58,-9999.0,West,9.2,-,N/A,,Unknown,270,2012-10-15 15:00:00
10:00 AM,58.6,40.8,52,29.59,-9999.0,WNW,11.5,17.3,N/A,,Unknown,290,2012-10-15 16:00:00
11:00 AM,59.4,40.3,49,29.59,-9999.0,WNW,11.5,-,N/A,,Unknown,290,2012-10-15 17:00:00
12:00 PM,62,41,34,29.59,,WNW,13.8,,,,,290,2012-10-15 18:00:00
12:00 PM,61.9,40.6,46,29.59,-9999.0,WNW,13.8,-,N/A,,Unknown,290,2012-10-15 18:00:00
1:00 PM,63.0,40.6,44,29.59,-9999.0,West,9.2,-,N/A,,Unknown,280,2012-10-15 19:00:00
2:00 PM,62.8,40.3,44,29.57,-9999.0,WNW,11.5,-,N/A,,Unknown,300,2012-10-15 20:00:00
3:00 PM,62.8,40.6,44,29.58,-9999.0,WNW,11.5,-,N/A,,Unknown,300,2012-10-15 21:00:00
4:00 PM,63.3,40.1,43,29.58,-9999.0,WNW,9.2,-,N/A,,Unknown,300,2012-10-15 22:00:00
5:00 PM,60.8,40.8,48,29.60,-9999.0,NW,12.7,-,N/A,,Unknown,320,2012-10-15 23:00:00
6:00 PM,53,41,53,29.62,,NW,6.9,,,,,320,2012-10-16 00:00:00
6:00 PM,52.9,40.8,64,29.62,-9999.0,NW,6.9,-,N/A,,Unknown,320,2012-10-16 00:00:00
7:00 PM,51.4,40.8,67,29.63,-9999.0,WNW,5.8,-,N/A,,Unknown,300,2012-10-16 01:00:00
8:00 PM,48.2,39.6,72,29.64,-9999.0,NW,8.1,-,N/A,,Unknown,310,2012-10-16 02:00:00
9:00 PM,45.9,39.2,78,29.65,-9999.0,WNW,6.9,-,N/A,,Unknown,300,2012-10-16 03:00:00
10:00 PM,41.4,37.2,85,29.65,-9999.0,NW,6.9,-,N/A,,Unknown,310,2012-10-16 04:00:00
11:00 PM,40.1,37.2,89,29.64,-9999.0,NNW,4.6,-,N/A,,Unknown,330,2012-10-16 05:00:00